This demonstration page uses our WeatherBlox Daily Observations layout. Learn more.

Left ArrowRight Arrow

41.55636, -103.73856

Hourly Observations for April 25, 2018

Temp ( °F °C ) Dew Point ( °F °C ) Humidity (%) Winds ( mph kmh ) Pressure ( in mb ) Visibility ( mi km ) Precip ( " mm )
12:58 am 00:58 Partly Cloudy 29 -1.4 28 -2.5 92 92 W 7 11 30.51 1033 10 16 N/A
1:58 am 01:58 Clear 28 -2.4 27 -2.8 97 97 WSW 5 7 30.49 1033 10 16 N/A
2:58 am 02:58 Clear 28 -2 26 -3.1 92 92 W 6 9 30.47 1032 10 16 N/A
3:58 am 03:58 Clear 25 -3.8 23 -5.1 91 91 WNW 6 9 30.48 1032 10 16 N/A
4:58 am 04:58 Clear 23 -4.9 21 -6.1 91 91 W 7 11 30.47 1032 10 16 N/A
5:58 am 05:58 Clear 24 -4.7 21 -5.9 91 91 WNW 7 11 30.46 1032 10 16 N/A
6:58 am 06:58 Sunny 26 -3.4 24 -4.7 91 91 W 8 13 30.45 1031 10 16 N/A
7:58 am 07:58 Sunny 35 1.5 30 -0.9 84 84 W 7 11 30.41 1030 10 16 N/A
8:58 am 08:58 Sunny 40 4.4 27 -2.9 59 59 W 9 15 30.39 1029 10 16 N/A
9:58 am 09:58 Sunny 44 6.4 25 -3.8 48 48 W 8 13 30.36 1028 10 16 N/A
10:58 am 10:58 Sunny 48 8.8 26 -3.1 43 43 WSW 9 15 30.29 1026 10 16 N/A
11:58 am 11:58 Sunny 52 11.3 27 -2.8 37 37 W 8 13 30.25 1024 10 16 N/A
12:58 pm 12:58 Sunny 57 13.7 24 -4.6 28 28 W 12 19 30.22 1023 10 16 N/A
1:58 pm 13:58 Sunny 60 15.3 19 -7.2 21 21 W 14 22 30.18 1022 10 16 N/A
2:58 pm 14:58 Sunny 62 16.6 20 -6.9 19 19 WSW 10 17 30.12 1020 10 16 N/A
3:58 pm 15:58 Sunny 64 17.9 23 -5.1 21 21 SW 12 19 30.08 1019 10 16 N/A
4:58 pm 16:58 Sunny 65 18.4 22 -5.5 19 19 SW 13 20 30.05 1018 10 16 N/A
5:58 pm 17:58 Sunny 65 18.1 24 -4.6 21 21 SSW 13 20 30.01 1016 10 16 N/A
6:58 pm 18:58 Sunny 58 14.7 27 -2.9 30 30 SSW 12 19 30.01 1016 10 16 N/A
7:58 pm 19:58 Partly Cloudy 51 10.6 31 -0.6 46 46 SW 9 15 30.01 1016 10 16 N/A
8:58 pm 20:58 Clear 47 8.1 31 -0.5 55 55 SW 14 22 30.01 1016 10 16 N/A
9:58 pm 21:58 Mostly Clear 44 6.9 28 -2.3 52 52 SW 13 20 29.99 1016 10 16 N/A
10:58 pm 22:58 Clear 41 5.2 26 -3.6 53 53 SW 14 22 29.97 1015 10 16 N/A
11:58 pm 23:58 Clear 51 10.4 23 -5.2 33 33 NW 24 39 29.94 1014 10 16 N/A

Powered by AerisWeather